Location: Beloeil
(45.5670°N, 73.2000°W)
Time: 02:50:07
(UTC-04:00)

Daily predictions for brighter satellites

Satellite Brightness Start Highest point End
(mag) Time Altitude Azimuth Time Altitude Azimuth Time Altitude Azimuth
Cosmos 1400 Rocket 3.8 00:05:57 33° ESE 00:06:19 33° E 00:10:04 10° NNE
Cosmos 304 Rocket 4.3 00:05:39 10° NNW 00:10:16 48° WSW 00:11:32 38° SSW
Cosmos 1455 3.5 00:08:41 10° NNW 00:12:08 31° W 00:12:57 28° WSW
Cosmos 1666 Rocket 3.6 00:14:40 48° SSW 00:15:53 79° W 00:20:22 10° N
Cosmos 1844 Rocket 3.3 00:16:14 34° SE 00:17:26 39° ESE 00:22:36 10° NE
Cosmos 1862 Rocket 3.9 00:17:35 10° N 00:21:52 53° ENE 00:22:52 43° ESE
Cosmos 967 Rocket 4.4 00:17:18 10° NW 00:23:40 77° WSW 00:26:22 37° SSE
Cosmos 1933 Rocket 3.9 00:24:43 44° SE 00:25:25 49° E 00:29:38 10° NNE
Tsikada Rocket 4.0 00:23:22 37° S 00:26:07 81° E 00:32:30 10° N
Lacrosse 5 3.8 00:26:46 10° W 00:29:38 16° WSW 00:29:38 16° WSW
CZ-2C R/B 3.4 00:28:02 39° S 00:30:13 67° WSW 00:35:56 10° NNW
Cosmos 1633 Rocket 3.3 00:33:49 44° SW 00:34:54 59° W 00:39:14 10° N
CZ-4C R/B 3.5 00:37:23 44° ENE 00:37:28 45° ENE 00:40:38 10° N
Cosmos 1892 3.7 00:41:17 34° E 00:41:31 34° E 00:45:06 10° NNE
Cosmos 2242 Rocket 3.9 00:41:50 10° NNW 00:46:20 57° W 00:47:18 46° SW
SAR-Lupe-2 4.2 00:47:58 42° E 00:48:24 44° ENE 00:51:51 10° N
SL-27 R/B 3.9 00:48:27 10° N 00:51:23 27° ENE 00:51:59 25° E
Cosmos 1703 Rocket 4.3 00:48:42 10° N 00:53:01 44° ENE 00:54:18 35° ESE
CZ-2C R/B 3.1 00:48:19 10° N 00:53:31 54° WNW 00:55:50 31° SW
Cosmos 968 Rocket 3.5 00:53:51 40° SW 00:55:45 76° WNW 01:01:04 10° NNE
Cosmos 1470 Rocket 3.8 01:01:55 46° SW 01:02:54 59° WNW 01:07:19 10° N
Meteor 1-26 Rocket 4.1 00:57:20 10° N 01:02:55 88° W 01:04:49 43° S
Cosmos 2278 Rocket 2.9 01:03:25 33° SE 01:04:53 38° ESE 01:10:05 10° NE
BREEZE-M DEB 3.1 00:56:58 10° WSW 01:05:41 89° SSE 01:08:32 10° ENE
H-2A R/B 3.7 01:02:06 10° NNE 01:06:12 33° E 01:07:06 30° ESE
Cosmos 1844 3.6 01:07:55 43° S 01:09:49 77° ESE 01:15:26 10° NNE
Cosmos 1833 Rocket 4.3 01:06:16 10° N 01:11:13 30° NE 01:16:08 10° ESE
Cosmos 2084 Rocket 3.4 01:08:04 10° NW 01:11:30 53° WSW 01:11:30 53° WSW
Cosmos 1538 Rocket 4.2 01:06:30 10° NNW 01:11:49 61° WSW 01:13:18 44° SSW
SL-24 R/B - RUBIN 2 4.0 01:09:01 10° NW 01:14:29 62° WSW 01:15:39 48° S
Cosmos 1933 4.3 01:12:03 10° NNW 01:15:49 35° W 01:16:12 34° WSW
COSMOS 2406 3.6 01:12:08 10° NW 01:17:34 48° WSW 01:19:02 39° SSW
Cosmos 1869 Rocket 4.0 01:17:09 43° SE 01:18:02 51° E 01:22:15 10° NNE
Okean 1-7 3.4 01:15:51 10° N 01:20:08 57° E 01:21:18 42° SE
Cosmos 923 Rocket 4.0 01:15:15 10° NNW 01:20:29 76° ENE 01:22:35 37° SSE
Cosmos 2279 Rocket 4.0 01:15:09 10° N 01:21:27 78° E 01:24:20 34° SSE
ALOS 2 4.3 01:23:03 20° WSW 01:23:37 20° W 01:26:55 10° NW
Meteor 2-10 Rocket 4.4 01:20:33 10° NNW 01:25:29 40° W 01:27:04 32° SW
CZ-4C R/B 2.4 01:22:53 29° SW 01:25:43 68° NW 01:31:51 10° NE
Cosmos 1689 Rocket 2.5 01:27:08 61° NW 01:27:08 61° NW 01:29:52 10° NNW
Cosmos 2263 Rocket 4.5 01:23:10 10° W 01:27:01 19° NW 01:30:54 10° N
Cosmos 1461 3.6 01:27:08 35° ESE 01:27:08 35° ESE 01:30:41 10° NE
CZ-4B R/B 1.7 01:31:59 56° W 01:31:59 56° W 01:35:21 10° NNW
Cosmos 1315 Rocket 3.4 01:34:45 40° WSW 01:35:24 44° WNW 01:39:11 10° N
Cosmos 2082 Rocket 3.1 01:30:46 10° NNW 01:36:10 45° ENE 01:41:12 12° SE
Landsat 5 3.6 01:36:20 51° SW 01:36:59 58° W 01:41:07 10° NNW
Meteor 2-3 Rocket 3.9 01:36:55 37° SSW 01:39:16 68° WNW 01:45:04 10° N
Cosmos 192 4.5 01:35:25 10° NNW 01:40:23 73° ENE 01:42:36 33° SE
PSLV R/B 4.0 01:39:02 10° NNE 01:43:20 54° E 01:44:33 41° SSE
ATLAS 3B R/B 4.1 01:41:11 20° SSE 01:44:25 28° ESE 01:50:19 10° ENE
Cosmos 1825 2.6 01:46:16 46° SE 01:46:54 52° E 01:50:38 10° NNE
Cosmos 2112 Rocket 4.0 01:45:22 10° NNW 01:50:41 90° WSW 01:53:06 34° SSE
Cosmos 1782 2.7 01:49:13 10° N 01:53:17 81° W 01:54:05 56° S
Cosmos 44 4.3 01:53:36 27° SE 01:54:32 29° ESE 01:58:27 10° NE
Meteor 2-6 Rocket 4.1 01:50:54 10° N 01:56:27 89° E 01:59:08 33° S
Meteor 1-27 Rocket 4.2 01:51:13 10° N 01:57:09 63° ENE 02:00:55 23° SSE
Abrixas 3.0 01:58:40 50° N 01:58:40 50° N 02:01:15 10° ENE
Cosmos 1408 2.4 01:59:38 64° S 02:00:07 82° E 02:03:45 10° N
Cosmos 1844 Rocket 3.8 01:57:52 18° WSW 02:01:21 36° NW 02:06:29 10° NNE
Timation 1 Rocket 4.3 01:59:59 35° SSW 02:02:39 82° ESE 02:08:40 10° NNE
Cosmos 1680 Rocket 3.6 01:58:20 10° NNW 02:03:32 61° WSW 02:05:27 37° S
Cosmos 44 Rocket 3.8 02:02:28 35° SSE 02:03:50 44° ESE 02:08:23 10° NE
Cosmos 1346 Rocket 3.7 02:05:50 10° NNW 02:09:17 31° W 02:09:34 30° WSW
Helios 1A Rocket 3.2 02:05:45 10° NNE 02:09:50 57° E 02:11:08 38° SSE
Aureole 1 Rocket 4.3 02:03:20 10° NNW 02:10:00 75° WSW 02:15:28 23° S
PSLV R/B 4.1 02:08:59 33° SSE 02:10:46 69° ENE 02:14:55 10° N
Cosmos 1674 Rocket 4.3 02:06:52 10° N 02:11:13 48° ENE 02:13:45 22° SE
Cosmos 1937 Rocket 4.4 02:09:42 25° SSE 02:12:04 38° ESE 02:16:49 10° NE
Resurs 1-4 Rocket 4.0 02:10:57 10° NE 02:14:56 21° E 02:18:54 10° SE
Cosmos 2221 Rocket 4.5 02:14:12 10° NNW 02:18:12 33° W 02:19:08 30° WSW
Cosmos 1092 Rocket 4.1 02:16:54 27° S 02:20:32 74° E 02:26:47 10° NNE
Cosmos 1898 Rocket 3.6 02:22:53 32° S 02:25:17 70° ESE 02:30:32 10° NNE
SL-27 R/B 4.4 02:24:06 10° NW 02:25:39 16° W 02:25:39 16° W
Cosmos 1607 3.9 02:24:03 30° SSW 02:27:15 74° ESE 02:33:33 10° NE
SeaSat 1 2.3 02:26:04 22° SSE 02:29:17 80° WSW 02:34:16 10° NNW
CZ-2D R/B 3.7 02:25:44 10° NE 02:30:20 28° E 02:34:35 12° SSE
Cosmos 1378 Rocket 4.5 02:28:46 10° N 02:32:55 44° ENE 02:36:16 15° SE
Cosmos 2026 Rocket 4.4 02:29:06 19° SSE 02:33:18 54° E 02:39:12 10° NNE
USA 238 DEB 4.5 02:31:18 21° S 02:35:22 41° ESE 02:41:50 10° NE
Cosmos 1606 3.8 02:32:03 10° NNW 02:35:27 29° W 02:36:00 27° WSW
USA 238 4.5 02:31:24 21° S 02:35:28 41° ESE 02:41:55 10° NE
ARIANE 5 R/B 4.1 02:32:26 10° NE 02:36:39 27° E 02:40:37 11° SSE
H-2A R/B 4.0 02:37:44 10° N 02:41:37 28° WNW 02:43:43 20° WSW
Cosmos 1340 2.6 02:38:11 10° NNW 02:41:57 65° W 02:43:13 38° SSW
SL-08 R/B 3.3 02:39:19 21° SSE 02:42:37 87° ENE 02:47:26 10° NNW
CBERS-1 4.2 02:39:06 10° NNE 02:44:15 70° ESE 02:47:21 24° S
Genesis I 4.3 02:46:04 22° WSW 02:48:06 38° NW 02:51:48 10° NNE
Cosmos 2278 Rocket 3.2 02:45:15 17° WSW 02:48:59 37° NW 02:54:12 10° NNE
IRS-P3 4.1 02:48:22 10° NNE 02:53:44 85° WNW 02:57:02 24° SSW
Cosmos 858 Rocket 4.5 02:51:18 27° SSW 02:54:12 78° WNW 02:59:25 10° NNE
Cosmos 1833 Rocket 2.9 02:49:57 10° NW 02:55:23 49° WSW 02:58:54 21° S
NPP 3.6 02:50:29 10° NNE 02:55:55 87° WNW 02:59:21 23° SSW
CZ-3B DEB 4.1 02:43:12 10° NW 02:56:27 81° SW 03:07:54 10° SE
Cosmos 2369 Rocket 3.9 02:54:53 10° SSE 02:59:21 25° ESE 03:03:51 10° NE
Cosmos 1655 Rocket 4.2 02:55:50 17° S 03:00:50 70° E 03:07:03 10° NNE
GP-B 3.1 02:57:33 10° N 03:01:58 67° W 03:04:28 25° SSW
COSMOS 2487 3.1 02:59:13 10° NW 03:02:33 37° WSW 03:03:26 31° SW
Cosmos 1461 4.4 03:03:33 14° W 03:06:15 27° NW 03:09:43 10° NNE
SL-16 R/B 2.6 03:02:02 10° SSE 03:08:16 89° ENE 03:14:34 10° NNW
Cosmos 2297 4.1 03:04:57 21° SW 03:08:42 53° WNW 03:14:16 10° NNE
UNK 3.8 03:04:25 12° SSE 03:08:46 83° ENE 03:13:28 10° NNW
Cosmos 1437 3.4 03:06:59 10° N 03:10:12 54° ENE 03:12:58 13° SSE
Cosmos 2298 Rocket 4.2 03:07:34 22° SW 03:10:55 61° WNW 03:16:12 10° NNE
USA 267 4.2 03:05:13 10° ENE 03:11:06 34° SE 03:15:50 15° S
Cosmos 1975 Rocket 3.3 03:09:58 10° N 03:14:17 69° E 03:18:37 10° SSE
Cosmos 1812 2.9 03:11:06 10° N 03:14:58 71° E 03:18:29 12° SSE
CZ-4C R/B 4.5 03:11:06 10° WNW 03:15:31 22° NNW 03:20:24 10° NNE
Exosat Rocket 4.5 03:12:40 10° NW 03:17:52 42° WSW 03:24:04 12° S
ADEOS Rocket 3.5 03:11:18 10° NNE 03:19:03 82° WNW 03:25:04 16° SSW
Cosmos 2082 Rocket 3.1 03:15:14 10° NW 03:20:02 30° WSW 03:22:59 19° SSW
Cosmos 1733 Rocket 4.3 03:19:01 18° WSW 03:21:18 28° WNW 03:25:06 10° NNW
Cosmos 2150 Rocket 4.4 03:19:04 20° SW 03:22:50 56° WNW 03:28:12 10° NNE
Meteor 1-25 Rocket 4.5 03:19:09 13° S 03:24:09 69° E 03:29:47 10° NNE
Meteor 1-14 Rocket 4.4 03:20:21 16° S 03:25:15 89° W 03:31:18 10° N
USA 161 4.1 03:31:23 10° ESE 03:33:05 17° ENE 03:34:53 10° NNE
Abrixas 3.2 03:30:56 10° WNW 03:33:36 47° N 03:36:17 10° E
ATLAS 3B R/B 3.0 03:28:26 16° SW 03:34:38 74° NW 03:41:48 10° NE
Cosmos 44 4.1 03:32:00 14° WSW 03:35:38 39° NW 03:39:50 10° NNE
S3M 4.0 03:32:29 10° NNW 03:38:40 73° W 03:44:46 10° S
Sich 1 Rocket 4.3 03:38:43 17° SW 03:41:57 41° WNW 03:46:18 10° N
ADEOS 3.6 03:38:05 10° NNE 03:43:20 83° WNW 03:48:13 12° SSW
Cosmos 1048 Rocket 4.1 03:40:15 10° NNW 03:45:41 88° ENE 03:51:04 10° SSE
MOZ.5/SAFIR/RUBIN 5/SL-8 3.9 03:41:02 10° SSE 03:45:47 85° ENE 03:50:32 10° NNW
USA 234 4.4 03:40:56 10° E 03:47:08 48° NNE 03:53:22 10° NW
Resurs 1-4 Rocket 2.4 03:49:55 10° N 03:55:08 56° WNW 04:00:04 11° SSW
Okean 1 3.3 03:52:26 10° NNW 03:56:31 69° W 04:00:32 10° S
Cosmos 1633 2.6 03:54:54 10° S 03:58:33 83° E 04:02:12 10° N
MOS 1 Rocket 3.6 03:56:42 10° NNE 04:02:09 85° WNW 04:07:21 10° SSW
BREEZE M DEB (TANK) 3.2 04:00:28 10° WNW 04:02:40 35° N 04:05:03 10° ENE
BREEZE-M DEB (TANK) 3.5 03:56:48 11° SW 04:03:44 40° SSE 04:06:36 10° E
BREEZE M DEB (TANK) 3.5 04:04:14 10° S 04:05:41 16° SE 04:07:24 10° E
Meteor 1-13 Rocket 4.4 04:00:26 10° N 04:05:59 77° ENE 04:11:33 10° SSE
BREEZE-M DEB (TANK) 2.6 04:04:04 13° SW 04:06:27 67° SSE 04:13:30 10° ENE
SeaSat 1 4.3 04:06:04 10° WSW 04:07:30 11° W 04:08:56 10° W
BREEZE-M R/B 3.0 04:01:29 10° WNW 04:07:41 64° SSW 04:10:53 10° SE
Okean 2 Rocket 3.5 04:05:27 10° SSW 04:09:39 47° WNW 04:13:55 10° N
CZ-2D R/B 2.8 04:05:29 10° N 04:10:32 43° WNW 04:15:39 10° SW
GRACE-1 3.7 04:07:57 10° S 04:10:38 72° W 04:13:21 10° N
GRACE-2 3.7 04:08:23 10° S 04:11:04 72° W 04:13:47 10° N
Meteor 1-11 Rocket 4.3 04:06:58 10° S 04:12:35 62° E 04:18:21 10° NNE
ARIANE 5 R/B 3.2 04:11:15 10° N 04:15:54 40° WNW 04:20:32 10° SW
Cosmos 1441 Rocket 3.3 04:12:38 10° NNW 04:16:39 77° W 04:20:38 10° S
Cosmos 1125 Rocket 3.7 04:11:55 10° SSW 04:17:11 64° WNW 04:22:27 10° NNE
CZ-2D R/B 3.7 04:15:24 10° N 04:19:45 65° WNW 04:24:08 10° SSW
UNKNOWN OBJECT B 3.3 04:22:19 10° N 04:25:53 43° WNW 04:29:24 10° SW
USA 238 DEB 4.3 04:19:25 10° WSW 04:26:12 52° NW 04:33:04 10° NNE
USA 238 4.3 04:19:31 10° WSW 04:26:18 52° NW 04:33:10 10° NNE
Cosmos 1300 Rocket 3.8 04:24:25 10° S 04:28:50 75° E 04:33:17 10° NNE
